EW7590 Weather Reports


time (UTC)temp
F
wind
direction
speed
knots
gust
knots
rain 1hr
in
rain 24hr
in
rain mn
in
humidity
%
barometer
mb
20260507191523 63 288 6.1 13.0 0.00 0.33 0.05 30 1005.7
20260507191003 62 49 0.9 14.8 0.00 0.33 0.05 32 1005.5
20260507190503 62 275 4.3 14.8 0.00 0.33 0.05 30 1005.8
20260507190003 63 227 4.3 10.4 0.00 0.33 0.05 30 1005.6
20260507185502 63 188 3.5 20.9 0.00 0.33 0.05 30 1005.7
20260507185002 63 265 6.1 20.9 0.00 0.33 0.05 29 1005.7
20260507184002 63 208 2.6 15.6 0.00 0.33 0.05 30 1005.8
20260507183503 63 305 4.3 13.9 0.00 0.33 0.05 31 1005.8
20260507183002 63 233 4.3 13.0 0.00 0.33 0.05 29 1005.8
20260507182502 63 225 2.6 13.0 0.00 0.33 0.05 30 1005.8
20260507182002 63 283 4.3 9.6 0.00 0.33 0.05 33 1005.9
20260507181502 63 289 4.3 11.3 0.00 0.33 0.05 31 1006.0
20260507181002 62 298 5.2 14.8 0.00 0.33 0.05 31 1006.0
20260507180502 62 294 6.1 15.6 0.00 0.33 0.05 31 1006.1
20260507180002 63 316 10.4 15.6 0.00 0.33 0.05 30 1006.1
20260507175002 63 245 4.3 13.9 0.00 0.33 0.05 30 1006.1
20260507174504 63 319 7.0 12.2 0.00 0.33 0.05 33 1006.1
20260507174002 63 306 3.5 11.3 0.00 0.33 0.05 33 1005.9
20260507173502 62 302 4.3 11.3 0.00 0.33 0.05 33 1005.9
20260507173003 62 284 2.6 12.2 0.00 0.33 0.05 31 1005.9
20260507172502 62 314 6.1 14.8 0.00 0.33 0.05 33 1006.0
20260507172023 63 230 3.5 14.8 0.00 0.33 0.05 34 1006.1
20260507171503 62 298 5.2 14.8 0.00 0.33 0.05 33 1006.1
20260507171002 62 318 3.5 14.8 0.00 0.33 0.05 33 1006.3
20260507170502 63 321 6.1 13.9 0.00 0.33 0.05 33 1006.3
20260507170002 62 308 5.2 12.2 0.00 0.33 0.05 38 1006.2
20260507165503 62 251 5.2 9.6 0.00 0.33 0.05 39 1006.3
20260507165002 63 220 2.6 11.3 0.00 0.33 0.05 38 1006.4
20260507164502 63 285 4.3 11.3 0.00 0.33 0.05 38 1006.5
20260507164023 61 307 4.3 12.2 0.00 0.33 0.05 38 1006.5
20260507163503 62 211 4.3 12.2 0.00 0.33 0.05 42 1006.3
20260507163002 61 303 6.1 10.4 0.00 0.33 0.05 41 1006.5
20260507162523 61 294 3.5 11.3 0.00 0.33 0.05 46 1006.6
20260507162023 61 282 4.3 12.2 0.00 0.33 0.05 49 1006.6
20260507161503 59 281 2.6 12.2 0.00 0.33 0.05 47 1006.7
20260507161023 60 292 5.2 11.3 0.00 0.33 0.05 49 1006.7
20260507160502 60 207 6.1 11.3 0.00 0.33 0.05 52 1006.5
20260507160002 59 298 1.7 12.2 0.00 0.33 0.05 52 1006.7
20260507155502 59 293 1.7 12.2 0.00 0.33 0.05 57 1006.8
20260507155002 59 306 6.1 12.2 0.00 0.33 0.05 51 1006.7
20260507154503 60 341 1.7 4.3 0.00 0.33 0.05 57 1006.7
20260507154003 58 260 0.9 12.2 0.00 0.33 0.05 58 1006.8
20260507153523 58 322 4.3 12.2 0.00 0.33 0.05 53 1006.8
20260507153002 59 313 5.2 12.2 0.00 0.33 0.05 54 1006.8
20260507152502 59 317 3.5 8.7 0.00 0.33 0.05 53 1006.8
20260507152002 60 234 2.6 7.8 0.00 0.33 0.05 56 1007.0
20260507151524 58 198 2.6 8.7 0.00 0.33 0.05 53 1007.0
20260507151002 58 270 3.5 8.7 0.00 0.33 0.05 54 1007.0
20260507150502 58 256 1.7 7.8 0.00 0.33 0.05 54 1007.1
20260507150002 58 296 0.9 7.8 0.00 0.33 0.05 52 1007.2
20260507145502 59 299 4.3 7.8 0.00 0.33 0.05 51 1007.2
20260507145002 58 319 1.7 12.2 0.00 0.33 0.05 52 1007.2
20260507144523 59 211 2.6 13.9 0.00 0.33 0.05 51 1007.3
20260507144003 59 324 7.0 13.9 0.00 0.33 0.05 49 1007.2
20260507143523 59 268 2.6 11.3 0.00 0.33 0.05 51 1007.3
20260507143002 59 235 3.5 7.8 0.00 0.33 0.05 51 1007.2
20260507142502 59 261 1.7 10.4 0.00 0.33 0.05 51 1007.3
20260507142002 58 336 5.2 10.4 0.00 0.33 0.05 52 1007.3
20260507141502 59 318 3.5 8.7 0.00 0.33 0.05 50 1007.3
20260507141023 58 250 2.6 8.7 0.00 0.33 0.05 50 1007.1
20260507140503 58 206 1.7 7.0 0.00 0.33 0.05 52 1007.1
20260507140002 58 278 1.7 7.0 0.00 0.33 0.05 56 1007.2
20260507135503 58 249 1.7 7.8 0.00 0.33 0.05 52 1007.1
20260507135002 58 316 1.7 7.8 0.00 0.33 0.05 53 1007.1
20260507134503 57 357 3.5 7.0 0.00 0.33 0.05 53 1007.0
20260507134002 57 277 1.7 7.0 0.00 0.33 0.05 57 1007.1
20260507133502 56 288 3.5 7.0 0.00 0.33 0.05 54 1007.2
20260507133002 56 257 1.7 5.2 0.00 0.33 0.05 57 1007.2
20260507132524 57 304 2.6 11.3 0.00 0.33 0.05 58 1007.4
20260507132023 56 320 4.3 11.3 0.00 0.33 0.05 58 1007.4
20260507131502 56 309 5.2 8.7 0.00 0.33 0.05 57 1007.7
20260507131002 55 294 4.3 8.7 0.00 0.33 0.05 57 1007.8
20260507130502 55 311 3.5 8.7 0.00 0.33 0.05 60 1007.7
20260507130003 55 288 3.5 8.7 0.00 0.33 0.05 62 1007.7
20260507125502 55 312 3.5 7.8 0.00 0.33 0.05 63 1007.7
20260507125002 54 309 3.5 7.8 0.00 0.33 0.05 64 1007.8
20260507124502 54 293 0.9 11.3 0.00 0.33 0.05 67 1007.7
20260507124002 54 300 4.3 11.3 0.00 0.33 0.05 65 1007.7
20260507123502 54 292 2.6 6.1 0.00 0.33 0.05 66 1007.8
20260507123023 54 225 0.9 7.8 0.00 0.33 0.05 69 1007.8
20260507122525 53 302 0.9 7.8 0.00 0.33 0.05 69 1007.8
20260507122045 53 277 0.9 7.0 0.00 0.33 0.05 70 1007.8
20260507121503 53 320 0.9 8.7 0.00 0.33 0.05 72 1007.8
20260507121002 52 310 4.3 8.7 0.00 0.33 0.05 71 1008.0
20260507120502 52 296 1.7 7.0 0.00 0.33 0.05 73 1008.0
20260507120002 52 215 0.9 7.0 0.00 0.33 0.05 75 1007.9
20260507115502 51 305 1.7 5.2 0.00 0.33 0.05 77 1007.8
20260507115002 51 278 1.7 5.2 0.00 0.33 0.05 79 1007.8
20260507114002 50 222 0.9 7.8 0.00 0.33 0.05 81 1007.8
20260507113502 50 295 1.7 7.8 0.00 0.33 0.05 80 1007.7
20260507113023 50 299 0.9 7.0 0.00 0.33 0.05 81 1007.8
20260507112502 49 314 0.9 5.2 0.00 0.33 0.05 80 1007.3
20260507112003 49 281 1.7 5.2 0.00 0.33 0.05 80 1007.3
20260507111503 49 321 2.6 6.1 0.00 0.33 0.05 80 1007.2
20260507111003 49 305 0.9 6.1 0.00 0.33 0.05 81 1007.5
20260507110502 49 312 1.7 6.1 0.00 0.33 0.05 79 1007.5
20260507110044 49 250 1.7 6.1 0.00 0.33 0.05 80 1007.7
20260507105502 49 296 0.9 5.2 0.00 0.33 0.05 81 1007.6
20260507105003 49 294 0.9 5.2 0.00 0.33 0.05 80 1007.2
20260507104502 49 292 2.6 7.8 0.00 0.33 0.05 83 1007.1
20260507104023 49 307 4.3 7.8 0.00 0.33 0.05 83 1007.0
20260507103503 49 325 0.9 7.8 0.00 0.33 0.05 83 1006.9
20260507103002 49 328 4.3 9.6 0.00 0.33 0.05 83 1006.8
20260507102503 49 321 3.5 9.6 0.00 0.33 0.05 83 1006.7
20260507102002 49 319 2.6 7.8 0.00 0.33 0.05 83 1006.7
20260507101502 49 309 1.7 8.7 0.00 0.33 0.05 84 1007.0
20260507101024 49 300 4.3 8.7 0.00 0.33 0.05 85 1007.0
20260507100502 49 309 2.6 7.8 0.00 0.33 0.05 85 1006.9
20260507100003 49 292 3.5 6.1 0.00 0.33 0.05 86 1006.8
20260507095502 49 290 2.6 4.3 0.00 0.33 0.05 87 1006.6
20260507095003 49 290 1.7 4.3 0.00 0.33 0.05 88 1007.2
20260507094503 49 212 0.9 2.6 0.00 0.33 0.05 88 1007.3
20260507094045 49 174 0.9 2.6 0.00 0.33 0.05 88 1006.8
20260507093502 49 246 0.9 2.6 0.00 0.33 0.05 88 1007.1
20260507093003 49 242 0.9 3.5 0.00 0.33 0.05 88 1007.1
20260507092502 49 304 0.9 3.5 0.00 0.33 0.05 88 1006.9
20260507092002 49 214 0.0 2.6 0.00 0.33 0.05 89 1007.1
20260507091524 49 209 0.9 2.6 0.00 0.33 0.05 89 1007.3
20260507091002 49 287 0.9 4.3 0.00 0.33 0.05 89 1007.2
20260507090502 49 269 0.9 4.3 0.00 0.33 0.05 87 1007.2
20260507090003 49 225 0.9 4.3 0.00 0.33 0.05 87 1007.0
20260507085002 49 288 2.6 7.0 0.00 0.33 0.05 86 1006.8
20260507084502 49 315 0.9 2.6 0.00 0.33 0.05 86 1006.7
20260507084003 49 305 0.9 7.0 0.00 0.33 0.05 85 1007.0
20260507083502 49 291 0.9 9.6 0.00 0.33 0.05 86 1007.0
20260507083002 49 298 4.3 9.6 0.00 0.33 0.05 87 1006.7
20260507082502 50 306 0.9 2.6 0.00 0.33 0.05 88 1006.7
20260507082003 50 294 0.9 2.6 0.00 0.33 0.05 88 1006.7
20260507081545 50 284 0.9 3.5 0.00 0.33 0.05 87 1006.9
20260507081002 50 277 0.9 4.3 0.00 0.33 0.05 87 1006.7
20260507080502 50 282 1.7 4.3 0.00 0.33 0.05 87 1006.7
20260507080003 50 288 1.7 7.8 0.01 0.33 0.05 85 1006.9
20260507075502 51 316 1.7 7.8 0.01 0.33 0.05 85 1007.0
20260507075002 51 331 1.7 7.8 0.00 0.32 0.04 83 1006.9
20260507074524 51 325 2.6 7.8 0.00 0.32 0.04 84 1006.9
20260507074023 51 283 1.7 5.2 0.00 0.32 0.04 85 1007.1
20260507073502 51 305 1.7 4.3 0.00 0.32 0.04 84 1006.9
20260507073002 51 288 1.7 4.3 0.00 0.32 0.04 84 1006.7
20260507072502 51 317 1.7 3.5 0.00 0.32 0.04 84 1006.5
20260507072003 51 231 1.7 7.8 0.00 0.32 0.04 84 1006.4
20260507071523 51 320 2.6 7.8 0.00 0.32 0.04 84 1006.2
20260507071002 51 306 2.6 5.2 0.00 0.32 0.04 85 1006.3
20260507070503 51 310 0.9 5.2 0.00 0.32 0.04 86 1006.6
20260507070024 51 300 1.7 6.1 0.00 0.32 0.04 87 1006.3
20260507065502 51 325 0.9 6.1 0.00 0.32 0.04 86 1006.2
20260507065002 51 321 1.7 3.5 0.00 0.32 0.04 88 1006.2
20260507064503 51 244 0.9 2.6 0.00 0.32 0.04 88 1006.2
20260507064002 51 237 0.9 2.6 0.00 0.32 0.04 88 1006.3
20260507063502 51 274 0.9 2.6 0.00 0.32 0.04 87 1006.1
20260507063023 51 238 0.9 3.5 0.00 0.32 0.04 86 1006.4
20260507062503 51 274 0.0 3.5 0.00 0.32 0.04 84 1006.1
20260507062002 51 303 0.0 4.3 0.00 0.32 0.04 84 1006.0
20260507061502 51 319 2.6 8.7 0.00 0.32 0.04 83 1006.0
20260507061023 51 313 1.7 8.7 0.00 0.32 0.04 83 1006.1
20260507060502 51 294 1.7 7.0 0.00 0.32 0.04 83 1006.1
20260507060003 52 290 1.7 9.6 0.00 0.32 0.04 83 1006.2
20260507055502 52 308 4.3 9.6 0.00 0.32 0.04 83 1006.2
20260507055003 52 320 3.5 8.7 0.00 0.32 0.04 84 1006.3
20260507054502 52 284 2.6 8.7 0.00 0.32 0.04 85 1006.4
20260507054002 52 289 5.2 8.7 0.00 0.32 0.04 86 1006.5
20260507053502 52 289 2.6 7.0 0.00 0.32 0.04 86 1006.3
20260507053003 52 277 1.7 8.7 0.00 0.32 0.04 87 1006.3
20260507052502 52 302 2.6 8.7 0.00 0.32 0.04 86 1006.3
20260507052003 53 301 4.3 8.7 0.00 0.32 0.04 86 1006.5
20260507051502 53 305 3.5 7.8 0.00 0.32 0.04 87 1006.7
20260507051002 53 281 2.6 7.8 0.00 0.32 0.04 87 1006.6
20260507050502 53 277 2.6 7.0 0.00 0.32 0.04 88 1006.4
20260507050003 54 288 1.7 9.6 0.04 0.32 0.04 89 1006.5
20260507045503 54 308 1.7 9.6 0.04 0.32 0.04 89 1006.5
20260507045002 54 289 1.7 9.6 0.04 0.32 0.04 89 1006.4
20260507044503 55 278 2.6 9.6 0.04 0.32 0.04 89 1006.4
20260507044002 55 306 4.3 9.6 0.04 0.32 0.04 90 1006.2
20260507043503 56 305 2.6 8.7 0.04 0.32 0.04 90 1006.2
20260507043002 56 304 2.6 7.8 0.04 0.32 0.04 90 1006.2
20260507042502 56 310 4.3 7.8 0.03 0.31 0.03 90 1006.2
20260507042002 56 311 1.7 7.0 0.03 0.31 0.03 90 1006.2
20260507041502 57 318 3.5 7.8 0.03 0.31 0.03 89 1006.3
20260507041002 57 312 2.6 11.3 0.03 0.31 0.03 88 1006.4
20260507040502 57 303 6.1 11.3 0.02 0.30 0.02 88 1006.4
20260507040003 57 303 2.6 11.3 0.00 0.00 0.00 89 1006.2
20260507035502 58 259 0.9 7.8 0.00 0.28 0.28 91 1006.2
20260507035003 58 315 0.9 7.8 0.00 0.28 0.28 91 1005.9
20260507034502 58 223 0.0 2.6 0.00 0.28 0.28 91 1005.8
20260507034025 58 241 0.9 3.5 0.00 0.28 0.28 91 1005.9
20260507033502 58 234 0.9 8.7 0.00 0.28 0.28 90 1005.8
20260507033003 59 249 1.7 9.6 0.00 0.28 0.28 91 1005.6
20260507032523 59 295 2.6 10.4 0.00 0.28 0.28 91 1005.6
20260507032023 59 273 4.3 10.4 0.00 0.28 0.28 92 1005.5
20260507031503 59 219 2.6 7.0 0.00 0.28 0.28 92 1005.4
20260507031002 59 274 2.6 7.0 0.00 0.28 0.28 92 1005.4
20260507030503 59 241 1.7 8.7 0.00 0.28 0.28 92 1005.1
20260507030003 59 206 3.5 8.7 0.00 0.28 0.28 92 1005.1
20260507025503 59 211 2.6 8.7 0.00 0.28 0.28 92 1005.1
20260507025002 59 208 4.3 9.6 0.00 0.28 0.28 92 1005.1
20260507024503 59 193 4.3 9.6 0.00 0.28 0.28 92 1005.1
20260507024003 59 188 4.3 9.6 0.00 0.28 0.28 91 1005.2
20260507023502 59 195 5.2 9.6 0.00 0.28 0.28 91 1005.3
20260507023002 59 192 5.2 7.8 0.00 0.28 0.28 92 1005.2
20260507022502 59 208 4.3 7.8 0.00 0.28 0.28 92 1005.2
20260507022002 59 198 5.2 8.7 0.00 0.28 0.28 92 1005.1
20260507021524 59 192 3.5 9.6 0.00 0.28 0.28 92 1005.1
20260507021002 59 205 3.5 9.6 0.00 0.28 0.28 92 1005.1
20260507020503 59 186 4.3 8.7 0.00 0.28 0.28 92 1004.9
20260507020024 59 200 5.2 9.6 0.00 0.28 0.28 91 1005.0
20260507015503 59 202 5.2 9.6 0.00 0.28 0.28 91 1005.3
20260507015023 59 192 6.1 8.7 0.00 0.28 0.28 91 1005.2
20260507014502 59 190 4.3 8.7 0.00 0.28 0.28 91 1005.4
20260507014002 59 196 5.2 9.6 0.00 0.28 0.28 91 1005.3
20260507013502 59 202 3.5 9.6 0.00 0.28 0.28 91 1005.2
20260507013003 59 199 6.1 9.6 0.00 0.28 0.28 91 1005.3
20260507012502 59 195 4.3 9.6 0.00 0.28 0.28 92 1005.5
20260507012003 59 181 5.2 9.6 0.00 0.28 0.28 92 1005.4
20260507011502 59 201 4.3 12.2 0.00 0.28 0.28 92 1005.5
20260507011003 59 199 5.2 12.2 0.00 0.28 0.28 92 1005.5
20260507010502 59 198 4.3 8.7 0.00 0.28 0.28 92 1005.5
20260507010003 59 195 5.2 9.6 0.01 0.28 0.28 92 1005.6
20260507005502 59 202 3.5 9.6 0.01 0.28 0.28 92 1005.5
20260507005023 59 211 4.3 10.4 0.01 0.28 0.28 92 1005.4
20260507004524 59 201 6.1 10.4 0.01 0.28 0.28 92 1005.5
20260507004002 59 186 4.3 12.2 0.01 0.28 0.28 92 1005.4
20260507003524 59 191 7.0 12.2 0.00 0.27 0.27 92 1005.3
20260507003003 59 187 4.3 10.4 0.00 0.27 0.27 92 1005.2
20260507002523 59 204 4.3 9.6 0.00 0.27 0.27 92 1005.2
20260507002003 59 189 5.2 10.4 0.00 0.27 0.27 92 1005.3
20260507001502 59 189 5.2 10.4 0.00 0.27 0.27 92 1005.3
20260507001003 59 198 3.5 11.3 0.00 0.27 0.27 92 1005.1
20260507000502 59 193 6.1 11.3 0.00 0.27 0.27 92 1005.1
20260507000003 59 184 5.2 9.6 0.07 0.27 0.27 92 1005.0
20260506235502 59 188 5.2 9.6 0.07 0.27 0.27 92 1005.0
20260506235003 59 182 4.3 7.8 0.07 0.27 0.27 92 1005.0
20260506234502 59 179 5.2 10.4 0.07 0.27 0.27 92 1005.1
20260506234002 59 197 4.3 10.4 0.07 0.27 0.27 92 1004.9
20260506233503 59 187 4.3 10.4 0.07 0.27 0.27 92 1005.1
20260506233002 59 198 7.0 10.4 0.07 0.27 0.27 92 1005.0
20260506232504 60 192 4.3 9.6 0.07 0.27 0.27 92 1005.0
20260506232024 60 190 4.3 9.6 0.06 0.26 0.26 92 1005.1
20260506231045 60 189 4.3 9.6 0.02 0.22 0.22 91 1005.2
20260506230503 60 191 3.5 13.0 0.01 0.21 0.21 91 1005.2
20260506230002 60 192 6.1 13.0 0.08 0.20 0.20 91 1005.4
20260506225544 60 204 5.2 12.2 0.07 0.19 0.19 91 1005.4
20260506225003 60 183 4.3 13.0 0.06 0.18 0.18 91 1005.3
20260506224502 60 197 5.2 13.0 0.06 0.18 0.18 91 1005.3
20260506224024 60 181 5.2 13.0 0.04 0.16 0.16 91 1005.3
20260506223503 60 190 6.1 13.0 0.04 0.16 0.16 91 1005.5
20260506223002 60 194 4.3 11.3 0.03 0.15 0.15 91 1005.5
20260506222503 60 190 5.2 11.3 0.02 0.14 0.14 90 1005.5
20260506222002 60 197 2.6 10.4 0.01 0.13 0.13 90 1005.5
20260506221524 60 192 4.3 10.4 0.01 0.13 0.13 90 1005.6
20260506221024 60 180 3.5 10.4 0.01 0.13 0.13 90 1005.6
20260506220524 60 189 5.2 10.4 0.01 0.13 0.13 90 1005.6
20260506220002 60 178 6.1 12.2 0.02 0.12 0.12 90 1005.7
20260506215523 60 198 5.2 12.2 0.02 0.12 0.12 90 1005.7
20260506215002 60 183 7.0 12.2 0.01 0.11 0.11 90 1005.7
20260506214524 60 185 7.0 11.3 0.01 0.11 0.11 90 1005.7
20260506214023 60 192 6.1 10.4 0.01 0.11 0.11 90 1005.7
20260506213503 60 178 2.6 8.7 0.01 0.11 0.11 91 1005.8
20260506213023 60 203 4.3 8.7 0.01 0.11 0.11 90 1005.9
20260506212524 60 174 5.2 9.6 0.01 0.11 0.11 90 1006.1
20260506212003 60 188 6.1 9.6 0.01 0.11 0.11 90 1006.1
20260506211502 61 192 3.5 8.7 0.01 0.11 0.11 89 1006.1
20260506211003 61 179 5.2 15.6 0.00 0.10 0.10 89 1006.1
20260506210502 61 212 5.2 15.6 0.00 0.10 0.10 89 1006.3
20260506210003 61 197 4.3 11.3 0.00 0.10 0.10 89 1006.2
20260506205502 61 191 3.5 8.7 0.06 0.09 0.09 89 1006.2
20260506205002 61 199 5.2 9.6 0.06 0.09 0.09 89 1006.3
20260506204503 61 180 4.3 11.3 0.05 0.08 0.08 88 1006.3
20260506204002 61 191 5.2 11.3 0.04 0.07 0.07 87 1006.2
20260506203503 61 193 5.2 11.3 0.04 0.07 0.07 87 1006.3
20260506203024 62 190 6.1 13.9 0.03 0.06 0.06 86 1006.2
20260506202502 62 199 6.1 16.5 0.03 0.06 0.06 86 1006.1
20260506202003 62 184 5.2 20.9 0.02 0.05 0.05 84 1006.0
20260506201502 63 189 6.1 20.9 0.01 0.04 0.04 83 1006.2
20260506201003 63 185 7.8 12.2 0.00 0.03 0.03 83 1006.1
20260506200502 63 190 6.1 13.9 0.00 0.03 0.03 82 1006.2
20260506200003 63 188 5.2 13.9 0.03 0.03 0.03 82 1006.2
20260506195503 63 199 7.0 13.0 0.03 0.03 0.03 80 1006.1
20260506195002 64 198 7.8 12.2 0.03 0.03 0.03 79 1006.1
20260506194503 64 198 4.3 9.6 0.02 0.02 0.02 80 1006.1
20260506194045 65 189 7.0 13.9 0.02 0.02 0.02 78 1006.0
20260506193502 65 193 6.1 13.9 0.01 0.01 0.01 77 1006.0
20260506193024 65 196 5.2 13.0 0.01 0.01 0.01 75 1006.0
20260506192502 65 182 6.1 13.0 0.01 0.01 0.01 75 1005.9